Theta_e
339 337 339 338 336 337 339 339 337 337 336 336 335 331 331 332 334 336 336 336 336 336 338 338 336 333 334 335 337 338 338 338 338 338 338 338 338 337 337 336 336 336 336 336 335 334 333 332 332 330 330 331 330 327 325 325 325 324 324 325 325 325 325 325 326 327 329 329 329 328 328 326 325 324 324 326 327 326 326 326 326 326 326 326 326
338 337 338 337 336 337 338 337 336 337 336 337 336 334 334 333 335 336 332 330 333 335 337 337 337 337 336 335 336 338 337 338 338 338 338 337 337 337 337 337 336 336 335 335 334 333 332 332 331 329 328 328 326 325 325 323 324 324 324 325 325 325 323 323 324 325 326 328 329 329 329 328 328 327 327 329 329 328 327 327 328 328 329 328 326
337 338 337 336 336 338 338 337 337 337 337 337 335 335 334 334 336 336 333 330 329 331 334 335 336 338 336 335 335 336 337 337 338 338 338 337 337 337 336 336 336 335 334 334 333 332 331 331 331 328 327 326 324 324 324 322 323 324 324 324 325 324 322 322 323 324 325 327 328 328 329 330 329 329 329 330 330 329 328 328 329 330 330 329 328
337 337 336 336 336 338 338 338 337 338 338 337 335 334 334 333 335 335 335 334 330 328 331 334 336 338 337 335 334 335 336 337 337 337 337 337 337 335 334 334 333 333 332 332 331 331 331 330 329 327 326 325 324 324 324 323 324 324 325 325 325 323 322 322 322 323 324 326 327 328 329 329 330 330 329 328 327 328 328 328 328 329 329 328 328
337 337 337 337 336 337 338 338 338 338 337 336 334 333 332 333 335 335 335 334 333 331 330 334 335 337 337 336 335 333 334 336 336 336 336 335 334 333 332 332 332 331 331 331 330 330 329 328 328 327 326 325 324 324 324 324 324 324 325 325 323 323 323 323 322 322 323 325 327 327 327 328 329 330 328 327 325 324 327 328 327 327 326 326 326
336 337 337 336 337 337 337 337 336 336 335 334 333 333 332 334 335 335 334 332 333 333 332 334 335 336 336 336 335 333 333 334 335 335 333 331 330 332 332 332 332 331 331 331 330 329 327 327 326 326 325 325 323 323 323 324 324 325 326 324 322 321 322 322 322 321 321 322 325 325 326 326 325 326 327 326 324 320 321 323 323 323 322 322 321
335 336 337 336 336 336 336 336 335 334 333 333 332 333 334 335 335 335 334 332 333 334 333 335 334 336 336 335 334 332 333 333 333 330 327 324 325 328 330 331 330 329 328 329 328 327 326 326 326 325 324 323 323 323 323 323 323 325 326 323 321 321 321 321 320 320 320 320 322 322 323 322 321 325 326 326 324 321 318 319 320 320 320 319 319
335 336 336 335 335 334 335 335 334 333 333 333 332 332 333 334 335 334 334 332 333 332 331 334 333 335 335 334 333 333 332 331 329 323 319 317 318 319 322 325 325 325 323 324 324 324 326 325 325 325 324 323 322 323 323 323 323 325 325 322 321 321 321 320 319 318 319 319 319 320 321 321 323 326 327 326 326 324 322 322 323 324 325 324 324
336 337 335 335 335 334 334 333 333 333 332 333 332 333 333 334 334 333 333 332 333 331 329 333 333 334 334 333 333 333 331 327 324 320 319 319 318 316 316 318 320 321 321 323 324 324 325 324 323 323 323 323 322 323 323 323 323 325 324 322 321 321 320 320 319 318 318 318 320 322 323 325 326 326 326 327 326 326 326 326 326 327 327 327 327
337 336 336 335 334 334 333 333 333 333 333 332 332 332 332 332 332 332 332 331 333 332 330 333 333 334 334 333 334 331 326 323 323 323 323 323 321 320 321 323 324 324 324 326 325 325 325 324 324 323 324 324 324 323 322 322 323 324 323 322 322 321 321 321 320 319 319 321 323 324 325 326 326 326 326 327 327 327 327 327 327 327 327 327 327
336 336 335 334 333 333 333 333 332 333 333 332 330 330 331 330 330 329 328 330 332 333 333 334 333 334 334 334 332 327 324 324 325 326 326 325 322 322 324 325 325 325 325 325 324 324 324 324 324 323 325 325 324 323 321 322 324 324 323 323 323 323 322 321 321 321 322 324 325 326 327 327 327 327 327 328 329 328 329 329 328 328 328 327 327
336 335 334 334 333 334 333 333 332 333 332 331 329 329 331 330 329 325 325 330 333 334 334 335 334 334 335 334 331 326 326 327 327 328 327 327 325 324 325 324 324 323 324 324 324 324 323 323 323 322 323 324 323 322 322 322 323 323 322 323 323 323 322 321 322 323 323 324 325 327 327 328 328 328 328 330 330 328 328 330 329 329 329 329 328
336 334 333 334 334 335 333 332 332 332 331 330 329 329 330 330 329 327 328 332 333 334 334 335 335 334 335 333 329 327 328 329 329 329 328 328 327 326 326 325 324 324 324 325 324 322 321 322 323 321 321 321 321 322 322 322 322 323 323 323 323 323 322 322 323 323 324 324 325 327 327 328 329 329 330 330 330 329 328 329 329 329 329 329 329
335 333 332 333 334 335 333 333 331 329 330 331 330 330 329 330 332 332 333 333 333 335 335 335 335 335 334 331 328 329 330 331 331 330 328 327 327 326 325 324 324 325 325 324 323 321 321 322 322 322 321 321 322 323 323 322 322 323 323 323 323 323 323 323 323 324 325 325 326 327 328 329 330 330 330 330 330 330 330 330 329 330 329 330 330
334 332 331 333 334 335 333 333 329 328 331 331 331 331 330 333 334 335 335 334 334 335 335 336 335 335 333 330 330 331 332 331 331 330 328 328 327 326 325 325 324 323 323 322 322 322 322 322 322 322 323 323 323 323 322 322 322 323 323 323 324 323 323 323 324 325 325 326 326 328 329 330 330 331 330 330 331 330 331 331 331 331 331 331 331
333 331 331 333 335 334 333 333 327 329 333 331 331 331 331 334 335 335 335 335 336 336 335 335 335 334 332 331 333 333 332 331 331 330 328 326 324 323 324 325 323 322 322 322 323 323 323 323 323 324 324 324 324 324 323 323 323 323 324 323 323 323 324 324 325 325 326 327 327 328 330 330 330 330 331 331 331 331 331 332 332 332 332 331 331
333 332 331 333 335 333 333 332 327 328 332 332 332 331 331 334 335 335 336 335 335 336 335 335 335 334 333 333 333 333 332 331 331 328 326 321 317 319 323 323 323 323 323 323 323 324 325 324 325 325 325 325 324 325 325 324 324 324 323 322 322 324 325 325 326 326 327 329 329 330 330 330 331 331 331 332 332 331 332 332 331 332 331 331 331
333 332 331 332 334 333 333 331 328 328 331 332 333 332 331 333 335 335 335 336 335 335 335 335 334 333 333 333 333 333 332 331 329 325 320 315 316 322 324 324 325 325 325 324 324 325 326 325 325 325 324 324 324 325 326 325 325 324 323 322 324 325 326 327 328 328 329 330 330 331 331 331 332 332 332 332 332 331 331 331 331 331 330 330 329
334 333 332 332 333 333 332 331 328 328 331 333 333 332 332 333 334 335 335 335 335 335 335 334 334 333 333 333 333 332 331 329 326 320 315 314 319 323 323 324 325 324 325 325 324 325 324 323 323 323 324 324 324 325 325 326 325 324 323 324 326 326 328 329 330 330 330 331 332 332 332 332 332 332 332 331 331 331 331 330 329 328 328 327 327
334 333 333 332 332 332 331 329 328 329 332 333 333 333 333 334 334 335 335 335 335 335 335 334 334 333 333 332 332 331 329 324 319 315 314 318 321 322 322 324 325 324 324 324 324 323 323 323 323 323 324 323 323 323 323 324 324 323 325 325 325 327 329 329 330 331 331 331 332 332 332 331 331 331 330 330 329 329 329 328 327 326 326 325 325
334 333 333 332 330 330 330 330 330 331 333 334 334 334 334 335 335 335 335 335 335 334 334 334 334 333 333 331 330 329 324 318 315 314 318 321 322 322 322 323 324 324 324 324 324 324 323 324 323 323 323 323 324 324 323 324 324 323 325 326 325 327 328 328 329 329 330 330 330 331 331 331 331 330 329 328 327 327 326 325 325 324 324 323 323
333 333 332 331 330 330 331 332 333 333 333 333 333 334 335 335 335 335 335 335 334 334 334 333 333 332 331 330 328 324 319 315 315 317 320 322 322 323 323 323 323 323 324 324 325 325 325 325 324 325 324 324 326 325 325 326 325 325 326 326 326 327 327 328 328 328 329 329 329 329 330 329 329 328 327 326 326 325 324 324 323 322 322 321 321
333 332 332 332 332 332 333 334 333 333 333 332 333 334 334 335 335 335 334 334 334 334 333 332 332 331 329 327 324 319 316 316 318 320 321 322 322 323 324 324 324 324 325 325 326 326 326 326 326 326 325 326 327 326 325 326 326 326 326 326 325 326 326 326 327 327 327 327 327 328 328 327 326 326 325 324 324 323 322 322 321 320 319 317 317
332 332 332 332 333 333 333 333 332 333 333 332 333 333 333 334 334 334 334 334 334 333 332 332 330 328 326 322 319 317 317 319 320 321 321 322 323 324 324 325 325 325 326 326 327 327 327 327 327 326 325 326 327 326 325 326 326 326 326 325 325 325 325 325 325 326 325 325 325 325 325 325 325 324 324 323 322 321 321 320 320 319 317 315 315
332 332 332 332 333 333 333 333 332 333 334 333 333 332 332 334 333 333 333 333 333 332 331 330 327 324 321 318 318 319 319 320 321 322 322 323 324 324 325 325 325 326 327 327 328 328 327 327 327 326 326 326 327 327 326 325 325 325 324 323 323 324 324 324 324 323 323 323 324 323 323 323 323 323 322 321 320 319 319 318 318 317 316 315 314
331 332 333 332 332 333 333 332 332 333 334 333 332 331 331 331 332 332 332 331 331 330 329 327 324 320 318 318 320 321 321 321 322 323 323 324 324 324 325 326 326 327 328 327 327 328 327 327 327 327 326 326 326 326 326 325 324 323 323 321 321 322 322 322 322 321 321 321 321 321 321 321 321 321 321 319 318 318 317 317 316 315 314 313 313
331 333 334 332 330 333 333 330 331 334 333 332 332 331 329 328 328 329 328 327 326 325 324 323 320 318 319 321 322 323 322 323 323 323 324 324 324 325 326 327 327 327 327 325 325 326 325 325 326 326 326 325 326 326 325 324 322 320 319 317 317 317 317 318 319 319 320 319 319 318 318 318 318 318 318 317 316 315 315 314 314 313 313 312 311
331 332 334 332 330 333 333 330 331 333 333 331 331 329 327 327 326 326 323 322 322 320 319 318 318 319 322 323 324 324 324 324 324 324 324 324 326 326 325 326 326 326 325 324 324 323 322 323 324 324 325 325 324 323 322 319 317 315 313 310 308 308 307 308 312 315 317 317 316 316 316 316 316 316 316 315 314 313 313 312 312 312 311 310 310
331 332 334 332 331 334 331 329 331 332 332 331 328 325 325 325 324 322 320 320 319 318 318 318 320 322 323 323 324 325 325 325 324 324 325 325 326 326 325 325 325 325 323 323 324 323 321 320 321 323 323 323 321 319 317 314 311 309 307 306 306 306 306 307 309 312 314 315 314 313 313 313 312 312 313 312 312 311 311 311 310 310 310 309 309
331 332 333 331 331 333 330 329 331 332 331 328 324 322 322 322 321 319 319 319 318 318 319 320 322 323 323 323 324 325 325 325 324 324 324 325 325 325 325 324 325 325 323 323 323 321 320 318 319 322 322 322 318 314 313 311 308 307 307 309 310 310 310 311 311 312 313 313 313 311 310 310 309 309 309 310 310 310 309 309 309 309 308 308 308
328 330 332 331 331 332 330 329 331 331 327 322 320 321 321 320 319 318 319 319 319 320 322 323 324 324 324 324 325 325 325 325 325 324 324 324 323 324 324 324 325 324 323 322 319 317 316 316 319 322 322 320 315 311 311 310 308 308 309 311 311 310 310 311 310 311 311 311 311 310 308 307 307 307 307 307 307 307 307 307 307 307 307 306 306
324 327 329 330 331 332 330 330 331 329 324 320 320 321 321 320 319 319 319 320 321 322 324 324 324 324 324 324 325 326 326 326 326 325 324 323 321 322 322 322 323 322 321 320 315 312 313 316 319 321 321 318 314 311 310 310 309 307 308 309 308 307 306 307 308 309 309 309 308 307 306 305 304 304 304 304 304 304 304 305 305 305 305 305 305
319 322 326 329 330 331 330 330 330 327 322 321 321 321 321 320 319 320 321 322 322 323 324 324 325 325 324 325 325 325 326 326 326 325 324 322 320 320 320 320 321 320 319 317 314 311 312 316 319 320 318 315 312 309 308 309 307 305 305 305 304 304 303 304 306 307 307 307 306 306 304 303 302 301 301 300 300 300 301 302 303 303 303 303 303
312 317 322 326 327 329 329 329 330 326 323 322 322 321 322 321 321 321 322 323 324 324 324 325 325 326 326 326 326 325 325 325 324 323 322 321 320 319 318 318 318 318 317 315 313 311 312 316 318 317 314 312 309 306 307 306 302 301 301 300 300 300 300 301 303 304 305 305 304 304 302 301 300 299 298 297 296 296 296 298 299 300 301 301 301
307 311 317 321 324 326 326 327 329 326 323 323 322 322 322 321 321 322 323 324 324 325 325 326 326 326 327 326 326 324 323 322 321 321 320 320 319 318 317 317 316 315 314 312 310 310 311 314 317 316 312 309 306 303 304 302 298 298 297 297 297 297 298 299 300 301 302 302 302 301 300 299 297 296 295 294 293 292 292 292 294 295 297 298 299
305 307 310 315 319 323 324 323 326 327 324 323 322 322 322 322 321 321 322 324 325 325 325 325 325 325 325 324 324 322 321 321 319 318 319 318 318 317 316 315 313 311 310 308 307 308 310 313 314 315 312 307 304 301 299 298 296 295 295 295 296 296 296 296 297 298 298 299 299 298 297 296 295 294 292 291 289 288 288 288 289 290 292 294 296
304 306 308 310 313 319 322 321 322 324 324 323 322 321 321 322 321 321 322 323 324 325 324 324 325 324 324 322 321 321 320 320 317 316 317 317 317 317 315 313 310 307 306 304 305 306 309 311 310 311 312 307 303 299 296 295 294 293 293 294 294 294 295 295 295 295 295 296 295 294 294 293 292 290 289 287 286 286 286 286 286 286 286 288 291
302 306 308 308 309 313 317 318 319 320 322 322 322 321 321 321 321 321 322 322 323 324 323 323 323 322 321 320 319 319 318 318 316 315 314 315 315 315 314 310 306 304 302 302 303 306 307 310 309 307 308 307 302 298 294 293 291 290 290 290 291 291 292 292 292 292 293 293 292 292 291 291 290 289 288 287 287 287 287 286 286 285 284 284 285
302 303 307 309 308 308 309 312 315 316 319 321 321 321 320 319 319 319 320 320 320 321 321 321 320 319 318 318 317 317 316 315 314 312 312 313 313 313 312 308 303 300 300 300 302 305 306 308 308 305 303 303 301 297 294 292 290 289 288 288 288 288 288 288 289 289 289 289 289 289 289 289 289 288 288 288 287 287 287 287 287 286 285 284 283
302 301 305 308 308 307 305 307 309 311 314 316 317 317 317 317 316 316 316 316 318 317 317 317 316 316 316 316 316 314 313 312 311 310 309 311 311 311 309 304 299 298 298 299 302 304 305 305 305 304 301 298 297 296 294 293 291 289 288 288 288 287 287 287 287 287 287 287 287 287 287 287 287 287 287 287 287 287 286 286 286 286 286 284 283
301 300 303 306 308 309 307 304 304 306 309 310 312 313 312 312 312 313 313 312 313 313 312 312 312 312 313 313 312 311 310 310 309 308 308 308 308 307 305 300 296 296 297 298 301 303 303 304 302 302 301 298 294 293 294 295 293 289 288 288 288 288 287 287 287 286 286 286 286 286 286 286 286 286 286 286 286 285 285 285 285 285 285 285 283
301 301 304 306 306 307 309 307 303 303 304 305 307 308 308 308 308 309 310 309 309 310 310 309 309 309 309 309 309 308 307 308 307 307 306 306 306 304 301 298 295 295 296 297 300 302 302 303 302 300 299 298 295 293 294 296 293 290 288 287 287 287 287 287 287 287 286 286 286 286 286 286 286 285 285 285 285 284 284 284 284 284 284 284 283
300 301 303 305 304 304 307 309 307 304 303 303 304 304 305 306 307 306 307 307 305 306 308 307 306 307 306 305 305 305 305 305 305 305 304 303 304 302 298 296 294 294 295 297 299 301 301 301 302 300 297 295 294 293 295 295 293 291 290 291 289 289 288 286 286 286 286 286 286 286 286 285 285 284 284 284 284 283 283 283 283 283 283 283 283
299 300 302 304 304 303 304 306 308 308 306 303 302 302 303 303 303 302 303 304 302 303 305 304 303 303 302 302 302 302 303 304 304 303 302 301 301 300 297 295 294 294 295 297 299 300 301 300 300 301 299 295 292 293 294 295 295 293 294 294 291 292 294 288 284 285 285 285 285 285 285 285 284 284 284 283 283 283 282 283 282 282 283 282 282
299 301 303 304 303 303 304 305 306 307 307 305 303 302 301 301 301 300 301 301 299 299 301 300 299 299 299 299 299 300 302 302 301 299 298 297 297 297 296 294 293 293 294 295 297 299 300 300 299 299 299 298 295 294 294 294 295 296 296 296 294 296 296 288 286 286 283 284 284 284 284 284 284 284 283 283 282 282 282 282 282 282 282 282 281
298 299 301 303 303 302 303 304 305 305 305 307 306 304 302 301 300 299 299 297 296 296 297 296 296 298 298 297 297 298 299 298 297 296 295 295 295 295 294 294 292 293 294 294 296 298 299 299 299 298 298 298 298 296 295 294 295 295 295 296 296 297 294 287 289 289 283 283 283 283 283 283 283 283 283 282 282 282 281 281 281 281 282 281 280
299 299 299 300 301 301 302 303 304 303 303 305 306 305 304 302 300 299 298 296 294 293 294 294 295 296 297 296 295 294 294 294 293 293 293 293 294 294 294 294 293 293 293 294 296 297 298 298 298 298 297 297 298 297 296 294 294 294 294 294 293 294 293 289 290 290 287 284 282 282 283 282 283 282 282 282 281 281 281 281 281 281 280 280 280
299 299 298 298 299 300 301 301 302 302 302 303 303 304 304 304 303 301 299 297 296 294 292 292 293 294 294 294 293 292 292 292 292 292 293 293 293 294 294 294 293 292 292 293 295 296 297 297 297 298 297 297 297 296 296 295 294 293 293 293 293 293 293 291 291 291 290 286 283 282 282 282 282 282 281 281 281 281 281 281 281 280 280 279 279
298 298 298 298 298 298 299 300 300 300 301 302 302 302 303 303 302 300 298 297 296 294 292 291 291 292 292 292 291 291 291 292 292 292 292 293 293 293 292 292 292 292 292 293 293 294 295 295 295 295 296 296 296 296 296 295 294 294 293 292 292 291 291 290 290 289 289 289 285 282 282 282 282 281 281 281 280 280 280 280 280 279 279 279 278
297 297 298 298 297 297 297 298 298 299 299 300 301 301 301 301 300 299 297 295 294 293 291 290 290 290 291 291 290 291 291 291 291 292 292 292 292 292 292 292 293 293 294 294 295 296 296 295 295 294 294 294 295 296 296 295 293 293 292 291 291 290 289 288 288 288 287 287 286 283 282 282 281 281 281 280 280 280 280 279 279 279 279 278 278
296 296 297 297 297 296 297 297 297 297 298 298 299 300 300 301 301 300 299 297 295 293 291 290 290 290 290 290 290 290 291 291 291 291 292 292 292 293 293 294 295 295 295 296 297 297 296 295 295 293 293 293 294 294 294 293 292 291 290 290 289 289 288 286 287 287 285 285 284 283 282 281 281 281 280 280 280 279 279 279 278 279 278 277 277
Wind_Speed
27 27 25 23 22 22 21 19 21 22 21 20 20 19 19 19 19 18 18 18 18 17 15 15 16 16 17 16 15 15 14 14 15 15 16 16 16 16 16 15 15 15 13 12 12 13 13 13 14 14 13 12 11 11 11 11 12 13 13 12 12 11 11 12 13 14 14 14 14 15 14 14 14 14 14 13 13 12 13 13 13 14 14 13 14
33 29 26 24 23 23 22 21 22 22 21 20 18 19 19 20 20 18 18 18 18 17 15 14 14 15 15 15 15 15 15 15 16 16 16 16 15 16 15 14 14 13 12 12 12 12 11 12 12 11 11 9 7 8 10 11 12 13 13 13 12 11 12 13 14 15 15 14 13 14 14 14 14 13 12 11 11 12 11 10 11 11 10 10 11
34 30 27 25 24 23 22 22 22 21 21 19 18 18 19 21 21 20 18 18 18 18 17 16 14 14 15 16 16 15 15 15 15 15 15 15 14 14 14 14 13 13 12 12 12 12 11 11 11 10 10 11 10 11 12 12 13 14 13 12 12 12 13 14 15 15 14 13 13 13 13 13 14 13 11 10 11 12 12 11 10 10 11 11 11
34 31 29 27 26 24 21 21 21 21 20 19 18 17 19 22 21 20 19 18 18 18 18 17 15 14 14 16 16 15 15 14 14 14 14 14 14 14 13 12 11 11 11 11 12 12 11 11 10 10 10 12 13 13 13 13 14 13 12 12 12 12 13 14 14 13 12 12 12 13 14 14 14 14 10 9 9 11 12 11 10 10 10 10 10
35 32 30 28 26 25 22 21 21 20 19 19 18 17 19 22 20 19 18 19 19 17 18 17 15 15 14 16 16 15 14 14 14 13 14 13 14 13 13 12 11 11 11 11 11 10 11 11 11 10 11 12 13 13 13 13 13 12 12 11 12 13 13 12 11 11 11 11 11 12 12 13 14 13 11 9 8 8 9 9 8 8 9 9 8
35 33 31 29 27 26 23 23 22 20 19 19 19 18 19 19 18 19 17 18 19 17 18 18 16 16 16 16 15 15 14 14 13 13 13 13 13 13 13 13 12 12 12 12 11 10 10 11 11 10 11 12 13 13 13 13 13 12 11 11 12 13 12 11 10 9 9 9 10 10 11 11 11 12 11 10 9 8 7 7 7 6 7 8 7
35 33 32 30 28 26 25 24 23 22 20 20 20 19 19 17 17 18 17 16 17 17 18 18 17 17 16 16 15 15 15 14 13 12 12 12 13 13 13 13 12 11 10 10 10 10 11 11 11 11 12 12 13 13 13 12 11 11 10 12 13 12 11 10 9 8 8 8 8 8 7 8 10 12 11 10 11 11 10 9 8 8 8 8 8
35 34 33 31 29 28 26 25 23 22 21 20 21 20 20 18 18 18 17 16 16 16 18 18 18 18 16 16 16 16 15 14 13 12 12 12 12 11 12 11 10 9 8 8 9 11 11 11 11 11 12 12 13 12 12 12 11 10 10 11 12 11 10 9 9 8 8 8 8 8 7 9 11 13 11 9 10 12 13 12 11 11 11 11 11
34 33 33 32 30 28 26 25 23 22 21 21 20 20 20 19 20 19 17 17 17 16 18 19 18 18 17 17 17 16 16 15 13 13 13 12 11 11 11 10 10 9 9 11 12 12 12 11 11 10 10 11 12 11 11 11 10 10 10 11 10 9 10 10 10 9 9 10 11 11 11 12 12 13 11 8 8 11 12 13 12 12 12 11 11
34 33 33 32 30 28 26 25 23 23 21 21 21 21 20 19 20 20 19 19 19 18 19 19 19 19 18 18 18 17 16 16 14 13 12 11 11 11 12 12 12 12 12 13 12 11 11 11 12 11 10 11 11 10 10 10 10 10 10 11 10 10 11 11 11 11 12 12 12 13 13 13 12 12 11 8 7 8 9 11 13 12 12 11 10
33 33 32 31 30 28 26 25 23 23 21 21 21 21 19 18 19 20 21 21 21 20 20 20 20 19 19 19 17 17 16 15 14 13 12 12 12 12 13 13 13 12 12 11 10 9 10 10 10 10 9 10 9 9 9 10 10 10 11 10 9 10 10 11 12 14 14 13 13 13 12 12 12 11 10 8 6 6 8 11 11 11 11 9 7
33 34 32 30 29 27 26 25 24 22 21 21 21 20 18 18 19 21 23 22 21 21 21 21 21 20 19 19 17 16 15 14 14 14 13 12 13 13 13 13 12 12 11 10 10 10 10 9 9 8 8 9 9 9 9 10 10 10 10 9 9 9 10 11 13 13 13 13 12 12 12 11 12 11 8 7 7 6 7 9 8 7 8 8 7
33 33 31 31 29 27 26 25 24 22 21 21 21 20 19 20 20 22 22 22 21 20 21 21 22 21 20 18 17 16 15 14 13 13 13 13 13 13 13 12 12 11 10 10 10 10 9 9 9 9 8 9 10 10 9 10 11 10 10 9 9 9 10 11 11 11 11 11 11 10 11 10 10 9 7 6 8 8 8 8 8 7 7 8 8
32 32 32 31 29 27 26 26 24 22 22 21 20 20 20 21 21 21 21 21 20 20 21 22 22 22 19 18 17 15 14 13 12 12 12 13 12 11 11 11 11 10 9 9 9 8 9 9 9 10 10 11 11 10 10 10 11 10 10 9 9 9 8 9 8 9 9 9 9 9 10 10 10 7 6 7 9 9 9 9 9 10 10 10 11
31 32 32 31 29 27 26 26 24 23 23 21 21 21 21 21 19 19 19 20 20 21 22 22 22 21 19 18 17 16 15 14 13 12 11 11 10 9 10 10 10 9 9 9 10 10 9 10 11 12 12 12 11 11 11 12 11 10 9 9 9 8 7 7 7 7 8 8 8 9 9 9 9 7 7 9 10 10 11 11 12 13 14 14 16
30 31 31 31 29 26 26 25 24 25 23 22 21 21 21 19 18 18 18 20 21 21 22 21 21 20 19 18 17 16 16 15 13 11 10 9 8 8 9 10 10 10 10 10 10 11 10 12 13 13 13 12 12 12 12 12 11 10 10 10 8 7 7 7 7 7 8 8 9 9 9 9 9 9 10 11 11 12 13 15 16 16 18 19 20
30 30 30 31 29 26 27 26 25 26 23 23 22 21 21 18 18 18 19 20 21 21 21 20 20 19 19 18 17 17 16 14 12 10 8 8 8 9 11 11 11 11 11 11 11 11 12 13 13 12 12 13 13 12 12 12 11 11 10 8 7 8 8 7 7 9 10 10 9 9 10 11 11 12 13 13 14 15 16 18 19 20 22 24 25
29 29 29 30 29 27 27 27 25 25 23 23 22 21 21 18 18 18 19 20 21 22 20 19 19 19 19 18 18 16 15 13 10 8 7 8 11 13 13 12 12 12 11 12 12 11 11 11 11 11 12 13 12 10 11 12 12 12 10 8 9 9 9 10 11 12 12 12 12 12 13 13 13 15 16 17 19 20 22 24 24 25 24 25 26
29 28 28 29 29 28 28 27 26 25 23 23 22 22 20 19 18 18 19 20 21 22 21 20 19 20 19 18 17 15 14 12 9 8 8 10 14 15 15 15 14 14 13 12 12 11 11 11 11 12 13 12 11 10 11 13 13 13 11 11 12 12 14 16 16 16 16 16 16 17 17 17 19 21 22 24 25 26 26 26 27 27 26 26 26
28 28 28 28 29 29 29 27 27 25 23 24 22 21 20 19 19 19 20 20 21 21 21 20 20 20 19 18 16 15 13 10 9 10 12 14 15 15 15 15 14 14 13 12 12 12 12 11 11 12 12 12 11 10 9 10 11 11 11 13 13 15 20 21 18 21 21 20 20 20 21 22 24 25 27 27 27 26 25 26 26 27 27 26 27
27 28 28 28 28 29 29 27 26 25 24 23 22 21 20 20 20 20 21 21 22 22 21 21 21 21 19 18 16 14 12 11 12 14 16 16 15 15 14 13 12 12 11 10 10 10 11 11 11 12 12 12 11 10 9 9 9 10 12 13 13 16 23 23 19 22 23 22 22 21 21 23 23 24 25 26 26 26 26 26 26 26 26 25 25
27 27 28 27 28 29 28 27 26 25 24 23 22 21 21 21 21 22 22 22 22 21 21 23 22 21 19 17 15 13 12 13 15 17 17 16 16 15 14 12 11 10 8 7 7 9 11 12 12 12 12 11 10 11 11 12 12 12 13 12 14 16 21 23 19 21 23 23 23 20 20 22 20 20 21 23 25 26 26 26 26 25 25 25 25
27 27 28 28 29 29 28 27 26 25 24 23 22 22 22 22 21 23 23 22 22 21 21 21 21 19 18 16 14 14 14 16 17 17 17 17 16 14 13 11 9 8 7 7 7 9 11 12 13 12 12 10 10 13 13 14 15 14 13 13 15 15 18 21 21 20 21 23 22 19 19 22 23 21 20 22 24 25 25 25 25 24 23 24 25
28 28 29 30 30 29 29 27 26 25 25 24 24 23 23 22 23 23 24 22 22 22 21 20 19 19 18 16 16 17 18 18 18 17 17 16 15 13 11 10 8 7 6 6 7 9 11 12 13 13 12 11 11 14 15 16 17 15 13 15 17 14 15 19 21 21 21 22 23 22 20 22 26 25 23 23 24 25 24 24 24 25 24 23 24
27 29 29 31 30 29 29 27 26 27 26 26 26 25 25 25 25 25 24 24 23 23 22 21 20 19 18 18 19 20 19 19 18 17 16 15 14 12 10 9 8 7 7 7 7 10 12 12 12 13 13 13 12 13 16 18 19 18 15 17 18 15 15 18 20 22 22 23 24 24 23 24 25 25 24 24 24 23 23 23 23 24 23 23 24
26 28 29 31 30 28 30 28 27 28 27 27 28 27 26 26 26 26 25 24 24 24 23 22 20 19 19 21 21 21 20 19 18 17 16 14 12 11 10 9 8 8 9 8 9 11 11 11 11 12 13 14 14 15 15 15 17 19 18 18 19 16 17 19 19 21 22 24 24 23 23 24 25 24 23 23 23 22 22 22 23 22 22 23 24
28 27 27 31 30 27 30 29 28 30 29 29 29 27 26 26 26 26 25 25 25 25 24 23 21 21 22 22 22 21 21 20 18 16 15 13 11 10 10 9 9 10 10 9 10 11 10 10 11 14 16 16 16 18 17 15 17 19 19 19 20 18 19 20 19 20 21 23 24 23 22 22 23 24 24 23 22 21 21 22 22 21 22 24 25
28 27 27 31 30 27 30 30 29 31 31 30 29 28 27 26 26 25 25 25 25 25 24 24 23 24 23 22 21 21 21 20 18 16 14 13 13 12 11 11 10 11 10 10 10 10 11 11 13 16 19 19 20 19 18 19 20 20 20 20 20 19 20 21 20 19 20 21 23 23 21 20 22 24 24 22 21 21 21 21 22 21 22 24 24
27 27 27 31 30 27 30 30 30 32 32 32 30 29 29 27 27 26 26 26 26 25 25 26 26 25 23 22 21 19 19 18 17 16 14 14 14 14 13 13 12 11 11 10 10 11 12 12 15 19 20 21 22 21 21 21 21 21 22 21 20 18 19 20 19 19 19 21 23 22 20 19 21 24 24 22 21 20 21 21 21 21 22 22 23
25 26 25 29 30 28 31 32 31 32 32 32 31 30 29 28 28 27 28 27 27 27 26 27 26 25 23 22 19 17 15 15 15 15 15 15 15 15 15 15 14 13 11 11 11 13 14 15 17 20 22 22 22 23 23 23 22 22 22 20 18 16 16 17 17 19 20 21 22 22 21 19 21 23 24 22 20 20 20 21 20 20 21 22 22
22 25 24 27 30 29 30 33 32 32 31 32 31 30 30 29 29 28 28 28 28 28 27 26 25 24 23 21 18 16 15 13 14 14 15 15 15 15 16 16 15 14 13 13 14 15 16 17 19 21 22 23 24 23 23 24 23 22 20 18 16 15 16 17 18 20 22 22 21 21 20 20 21 23 24 23 22 21 21 20 20 20 20 20 21
20 23 24 24 28 29 29 32 33 32 32 32 31 30 30 29 29 29 29 29 29 28 27 26 25 24 22 20 19 17 16 15 15 15 16 15 15 15 16 16 15 15 14 14 15 16 17 19 21 22 23 24 25 24 23 23 23 21 19 18 17 16 17 19 20 21 21 21 20 19 19 19 20 21 22 24 24 24 23 22 21 20 20 20 20
15 20 24 24 26 28 29 33 34 33 33 32 32 31 30 29 29 29 30 30 29 29 27 25 24 23 21 20 19 17 18 18 18 17 16 16 14 15 16 16 16 16 16 16 16 17 18 21 23 24 24 25 25 24 23 22 21 21 20 20 19 18 19 20 21 21 21 20 19 18 17 17 17 18 20 21 21 22 23 24 22 21 20 20 19
8 14 20 24 25 25 27 33 36 34 33 32 32 32 31 30 30 29 30 30 29 28 26 24 23 22 20 20 20 19 20 20 20 19 18 16 15 16 16 16 17 16 17 17 17 19 20 23 25 26 26 26 26 24 23 23 22 22 21 20 20 20 20 20 20 20 20 20 18 18 17 16 15 15 17 19 19 19 20 22 23 22 22 20 19
4 8 15 21 23 23 24 31 37 36 33 33 33 32 31 30 30 30 29 29 28 26 23 22 23 21 20 22 22 21 22 22 20 19 18 17 16 16 16 17 18 17 18 18 18 21 22 24 26 27 27 26 26 25 24 25 24 23 22 21 21 21 20 20 20 19 19 19 18 17 16 15 14 14 14 15 16 18 18 19 20 21 23 22 20
6 4 9 15 19 22 22 27 35 37 35 33 33 32 32 31 30 30 29 28 27 26 23 21 21 20 20 22 23 22 22 22 21 19 18 17 17 16 17 18 18 18 19 19 20 22 24 26 26 26 28 28 27 27 25 26 26 25 23 22 22 21 20 20 19 19 18 17 17 15 14 13 13 13 12 12 14 16 16 16 17 19 20 21 22
8 6 6 10 14 19 22 23 29 36 37 34 33 32 32 31 30 29 28 28 27 26 25 23 22 22 23 23 23 23 22 22 20 19 18 18 18 17 18 18 18 19 20 21 22 24 26 28 28 26 27 29 29 29 28 27 27 26 25 23 23 21 21 20 19 18 17 16 15 14 13 12 12 12 12 12 13 14 14 15 15 16 18 19 20
8 7 7 9 10 14 20 22 26 31 35 35 33 32 32 31 30 29 28 28 27 26 26 26 25 25 25 24 24 23 22 22 21 20 19 19 18 18 18 18 19 20 21 23 24 26 27 28 29 27 26 29 30 30 30 29 29 28 26 24 23 21 20 19 18 17 16 15 15 14 13 12 11 11 11 11 11 11 12 12 12 14 16 17 17
10 7 8 9 9 10 14 19 24 28 31 33 32 32 32 31 30 29 29 28 26 26 26 26 25 25 25 24 24 23 23 22 22 21 20 19 19 19 19 19 20 21 23 24 26 28 28 28 30 30 28 28 29 31 31 31 30 28 27 25 23 22 20 18 17 16 15 15 14 13 12 12 11 11 10 10 10 9 10 10 10 12 14 15 16
12 9 9 10 9 8 9 14 20 26 30 32 33 33 32 31 31 30 29 28 27 27 26 25 25 25 24 23 23 23 23 23 22 22 21 20 20 20 20 20 20 22 23 26 27 29 29 30 30 31 31 30 30 31 31 32 32 30 27 25 22 20 19 17 16 15 15 14 13 12 12 11 11 10 10 10 9 9 9 10 10 11 12 13 15
13 11 10 11 11 11 10 11 17 24 29 31 32 32 31 31 30 30 30 29 29 28 26 25 25 24 24 23 23 23 23 23 22 22 21 21 21 21 21 21 22 22 23 25 28 29 30 31 31 32 32 33 32 31 31 31 31 27 23 22 21 19 17 16 15 14 13 12 11 11 11 11 10 10 10 9 9 9 10 10 10 11 11 12 13
14 13 11 11 13 14 15 14 15 20 25 28 29 29 28 28 28 29 30 29 28 28 28 26 25 24 23 23 23 23 23 23 22 22 21 21 22 22 22 23 23 24 24 26 28 29 31 31 32 32 30 32 32 32 31 24 20 22 21 18 15 14 14 14 14 13 12 11 10 10 10 10 10 10 9 8 9 10 10 10 11 11 12 12 13
16 16 14 13 14 15 18 19 19 19 21 23 24 25 24 25 26 27 29 28 26 27 27 26 25 24 24 23 23 23 22 22 22 21 21 21 21 22 22 23 23 23 25 27 29 30 31 31 32 32 31 31 30 30 27 15 15 23 20 10 5 6 7 8 11 11 10 10 9 9 9 9 10 9 8 8 9 9 10 10 10 11 12 13 14
18 18 17 17 17 17 19 21 22 24 25 23 22 22 21 22 23 25 27 26 25 26 26 25 25 24 24 23 23 23 22 22 21 21 21 21 21 21 22 22 22 23 24 27 29 30 31 32 31 31 32 31 28 26 19 13 19 21 11 4 4 3 1 3 8 9 8 8 8 9 9 9 10 9 8 8 9 9 9 9 10 11 12 14 14
21 21 21 20 20 21 20 21 23 26 28 26 23 21 19 20 22 24 25 23 23 25 25 26 25 24 24 23 22 22 22 21 21 21 21 21 21 21 22 22 22 23 23 25 28 30 31 31 30 29 29 28 27 25 18 15 21 17 8 6 5 1 2 7 10 6 5 7 8 8 8 8 9 8 8 8 8 8 8 8 9 10 12 13 14
23 23 23 23 23 23 23 23 25 26 27 28 27 23 19 19 23 26 25 23 23 24 25 27 27 26 24 23 22 21 21 21 21 21 22 21 21 21 22 22 22 23 23 25 27 29 30 29 29 27 25 24 25 26 22 20 22 16 11 9 4 1 6 12 8 3 3 5 7 8 8 8 8 8 8 8 7 7 7 8 9 10 12 13 14
26 24 23 24 25 25 24 25 26 27 28 29 30 28 24 21 22 24 23 23 21 19 21 25 27 27 26 24 23 22 21 21 21 21 21 21 20 20 20 20 21 22 23 25 27 28 29 28 27 26 23 21 22 23 23 24 22 16 12 10 4 3 11 14 7 3 4 3 4 8 9 9 8 8 8 7 6 6 7 8 9 11 12 13 14
27 26 24 24 25 25 26 27 28 29 30 30 30 29 28 26 25 24 22 21 20 18 19 23 25 26 25 24 24 23 22 22 21 20 20 19 19 18 18 18 19 21 22 23 24 24 25 25 24 22 20 19 19 19 20 22 21 16 13 11 6 6 13 12 9 9 6 3 4 6 7 8 8 8 8 7 5 5 6 7 9 10 12 13 15
27 27 27 26 26 25 26 28 29 30 30 31 31 30 29 29 29 28 25 23 23 22 21 22 23 25 25 24 24 23 23 22 21 20 19 19 18 18 18 18 18 19 19 18 18 18 18 18 18 18 16 17 19 17 16 19 20 17 15 12 8 9 11 8 9 10 6 5 5 5 8 9 7 7 7 6 5 4 5 7 8 9 11 14 15
27 26 26 26 26 25 27 28 29 30 31 31 32 31 29 29 30 30 27 24 23 24 23 22 23 24 25 25 24 24 24 23 23 22 21 20 20 19 18 18 17 16 15 15 14 14 14 15 14 15 15 17 18 17 17 19 19 17 15 13 11 11 9 6 9 9 6 6 5 6 12 11 8 8 6 6 5 4 4 6 8 9 11 14 15
27 25 26 27 27 27 28 29 29 30 31 31 32 32 31 31 31 31 30 28 26 26 26 25 24 24 25 25 25 25 25 24 24 24 23 22 20 19 18 17 16 16 15 14 13 13 14 15 14 15 16 16 18 18 18 18 17 16 14 12 12 12 8 6 11 11 7 7 7 8 11 11 10 9 7 6 5 3 3 6 8 8 10 14 16
Wind_Direction
177 170 164 165 168 167 170 170 170 168 163 155 149 148 147 145 145 144 142 142 141 139 136 133 128 122 120 121 122 120 121 124 127 125 120 117 115 112 109 106 102 100 99 93 90 89 86 79 74 74 79 86 86 85 87 92 93 90 90 88 86 88 100 108 100 94 87 75 83 90 87 86 80 76 74 74 72 66 66 67 73 74 69 67 68
172 166 163 164 165 166 170 170 172 169 160 153 150 151 149 148 147 147 145 144 143 141 140 135 129 125 124 122 121 119 119 123 123 120 116 113 110 107 104 100 98 96 93 90 88 84 75 67 67 75 80 80 73 77 92 98 97 96 93 88 85 82 101 115 104 102 96 82 84 89 90 93 88 80 75 76 69 65 73 70 67 72 70 68 75
163 162 163 163 162 166 170 169 170 165 158 152 153 155 155 152 149 151 149 146 146 144 142 138 134 131 129 126 121 119 119 121 118 115 112 110 107 103 100 96 93 91 89 85 80 73 69 70 68 67 70 69 67 78 92 98 98 97 92 86 86 85 99 109 107 107 101 91 86 82 79 81 85 84 76 73 67 64 72 74 64 60 62 61 61
160 160 162 163 162 165 166 163 163 160 156 153 155 160 159 154 150 154 151 149 148 147 145 140 140 134 133 129 124 123 120 120 117 113 109 106 103 96 94 92 90 86 84 82 80 80 77 75 68 63 64 68 74 81 88 95 99 95 89 85 85 88 97 104 106 106 101 96 92 85 77 71 74 76 69 62 60 56 59 64 62 52 52 53 47
159 159 162 163 163 165 163 159 159 158 155 156 160 160 158 154 152 155 154 154 149 150 150 144 143 138 137 132 127 127 123 121 117 112 109 105 102 97 96 93 91 86 84 85 88 88 80 77 75 73 71 74 80 82 87 95 97 92 85 84 89 92 97 103 105 102 99 99 97 92 84 78 75 68 57 46 40 42 49 52 53 47 41 38 37
158 159 161 162 163 165 163 160 159 159 159 161 163 160 157 156 156 155 156 158 150 153 154 148 147 143 141 136 131 131 128 125 119 114 111 109 106 103 102 99 97 95 93 93 91 85 80 84 83 84 82 83 85 83 87 95 98 90 83 87 94 97 97 101 102 99 97 98 99 92 86 79 74 67 56 47 39 41 49 43 43 42 33 24 21
158 159 162 162 163 163 162 162 161 162 162 163 164 162 161 159 159 158 158 157 154 160 158 151 150 148 144 140 136 134 134 131 127 122 116 114 114 111 107 104 102 107 108 101 94 88 90 90 85 86 86 88 90 86 88 96 99 89 85 93 95 91 89 91 92 92 92 94 94 89 83 66 65 69 60 53 49 53 58 52 55 51 48 42 36
158 160 162 162 163 163 163 162 162 163 164 164 163 164 165 163 163 162 160 157 160 165 159 154 152 150 147 145 143 139 139 136 133 127 121 117 115 114 112 110 108 113 112 98 93 94 94 91 90 89 88 92 93 89 90 97 100 90 91 100 97 86 80 79 82 85 85 84 82 77 72 64 67 73 63 53 50 56 58 55 60 55 51 51 50
159 161 163 164 164 164 165 163 162 163 164 164 163 165 168 170 167 164 162 161 166 164 157 156 154 153 152 150 145 141 141 139 137 131 123 117 108 105 107 109 107 103 95 91 93 93 92 92 93 93 93 97 96 91 92 98 99 92 97 105 99 87 80 77 81 83 82 81 77 76 76 72 68 69 64 52 45 49 52 51 53 51 47 44 45
160 163 164 165 164 164 165 164 163 163 164 166 167 168 172 175 171 169 168 167 169 163 157 159 159 158 156 150 144 142 142 139 136 129 120 110 100 98 101 103 101 97 94 96 98 94 94 94 93 96 101 103 98 89 92 102 99 97 104 106 98 89 82 78 81 82 83 82 77 76 77 74 68 65 61 53 45 43 47 48 46 45 41 37 42
162 164 165 165 164 166 165 164 165 165 165 169 172 171 173 178 177 175 172 168 168 166 165 165 163 159 153 146 143 141 140 135 129 121 115 106 103 105 108 109 108 106 103 102 101 100 99 98 98 99 99 97 95 88 95 107 100 102 110 106 100 92 85 81 82 84 82 76 71 70 72 73 71 66 59 52 43 44 55 52 45 47 46 40 44
163 166 167 165 164 166 166 166 167 166 167 170 172 170 173 176 174 171 169 167 169 171 169 166 163 157 149 144 144 144 137 131 124 117 113 109 108 110 110 109 109 107 105 105 104 101 97 98 103 107 100 87 89 91 97 109 109 110 113 107 102 91 86 84 80 81 76 68 64 66 71 71 70 66 59 49 42 59 75 63 51 57 62 56 54
164 167 167 165 164 167 168 169 170 169 169 169 170 169 169 168 166 165 168 171 172 173 168 164 160 154 147 146 147 143 136 129 122 117 114 114 112 110 109 107 105 104 105 106 106 102 96 97 99 106 108 93 91 94 94 108 119 118 113 108 99 90 85 82 76 73 69 64 61 67 75 72 68 63 50 51 58 70 76 65 56 58 64 63 62
165 167 168 166 165 168 170 172 173 170 169 169 170 168 167 167 166 166 172 174 172 170 167 163 157 150 147 149 148 141 136 132 126 120 115 117 116 113 112 112 111 111 111 105 104 104 102 104 100 101 105 101 98 95 95 110 123 120 111 103 95 92 85 79 74 70 65 59 60 71 79 72 66 55 44 60 69 72 68 62 62 64 66 66 68
167 167 168 167 166 170 172 175 175 169 170 172 171 170 170 171 169 168 170 171 169 166 164 161 154 151 151 151 148 145 142 136 133 127 121 120 119 118 116 116 117 115 111 106 110 111 108 107 104 103 104 105 101 97 102 111 118 115 104 97 92 92 86 82 77 66 57 53 63 75 78 73 67 61 60 68 71 71 69 69 70 72 73 72 72
169 169 169 168 168 171 171 176 176 171 172 174 172 173 175 173 169 166 166 167 165 163 161 158 154 153 155 154 150 149 147 142 141 138 131 131 130 132 127 121 118 114 112 111 114 113 111 111 111 108 106 104 101 100 104 107 110 107 99 95 94 94 89 82 71 59 56 59 68 75 75 74 72 73 72 71 74 74 73 76 76 76 77 77 77
171 171 171 171 170 170 172 176 177 175 175 174 173 176 178 175 170 167 165 165 164 161 159 157 156 155 155 155 152 150 150 149 150 148 142 143 138 130 124 121 119 117 119 119 120 119 116 116 117 112 106 106 104 104 105 107 109 107 102 103 103 94 83 69 63 64 67 68 70 73 74 74 75 77 77 76 78 79 80 80 81 81 81 82 82
171 172 172 172 172 171 174 176 178 177 176 175 175 178 180 179 175 172 167 166 166 162 161 159 158 159 158 157 157 154 155 155 155 154 147 146 140 130 125 125 124 123 122 122 124 125 123 120 116 112 111 112 110 108 107 109 115 114 111 115 104 87 78 75 78 79 77 76 74 76 76 78 82 82 82 84 84 84 84 83 84 85 84 81 81
170 173 172 173 174 174 175 177 178 178 177 176 177 180 182 183 178 175 171 170 170 165 163 164 164 165 165 163 162 158 158 160 160 155 144 142 140 136 135 134 131 130 127 125 125 125 126 124 118 116 118 118 116 111 105 105 112 114 114 112 98 88 92 91 88 87 84 81 79 80 82 84 87 88 86 85 84 84 84 82 80 80 79 75 74
170 173 173 174 176 177 177 177 179 177 178 177 178 180 181 183 180 178 175 174 175 171 169 169 170 171 172 167 161 157 159 162 159 152 142 139 139 138 138 137 134 134 135 134 135 135 134 130 125 124 122 122 123 122 114 107 110 114 116 109 98 96 99 97 90 87 85 81 81 84 86 88 87 87 86 82 82 81 79 76 73 72 72 71 70
169 172 172 175 176 177 176 177 179 178 179 177 178 179 181 182 180 180 176 176 178 175 174 175 175 174 171 162 156 158 164 163 156 150 144 140 141 140 139 137 137 141 144 145 148 147 143 139 135 132 131 130 133 137 134 126 125 126 122 112 106 104 101 100 92 82 83 82 82 84 85 88 88 86 84 78 77 75 73 73 71 70 69 68 66
167 171 173 174 174 175 175 176 178 177 178 178 178 178 179 180 179 179 176 177 179 177 176 175 172 167 161 157 158 165 165 159 153 147 145 145 145 143 142 141 145 151 154 154 155 151 146 144 143 144 142 139 141 143 136 131 136 133 128 122 118 113 104 103 98 85 83 83 82 83 81 83 86 86 81 75 73 72 71 71 71 69 69 67 65
167 173 175 174 174 175 176 178 177 176 178 178 178 178 177 178 178 177 176 176 175 174 175 169 162 158 157 160 165 166 160 154 150 148 149 150 150 149 148 150 154 157 158 156 154 150 147 146 148 151 147 140 138 140 136 132 134 133 131 129 123 119 108 104 104 94 86 83 81 81 80 78 78 78 75 72 72 71 69 68 68 67 65 63 61
169 173 175 175 176 176 177 179 178 176 179 180 178 179 176 174 174 173 171 168 166 169 170 165 162 162 162 166 166 161 155 152 150 152 154 154 154 157 156 159 160 159 160 157 159 158 152 148 148 150 151 147 138 141 147 143 139 137 136 132 123 121 116 106 104 102 93 85 80 76 76 75 74 74 72 72 71 69 68 66 65 64 61 59 58
169 171 174 177 176 176 177 176 177 177 178 179 176 175 172 170 170 169 167 164 165 168 169 169 168 168 167 168 165 158 155 153 155 158 159 162 163 166 168 169 166 159 157 149 159 163 156 150 148 151 151 147 139 141 147 144 142 140 137 131 122 121 121 110 103 102 98 92 84 78 76 73 73 74 73 71 68 65 65 64 63 61 60 61 60
170 171 174 177 177 175 177 176 176 177 178 178 174 173 171 170 169 169 169 168 170 172 173 174 172 171 170 169 164 158 157 157 160 164 167 172 173 176 174 171 166 154 150 144 143 148 148 144 145 150 145 141 142 142 141 143 143 138 136 130 122 124 122 113 105 101 98 94 88 83 80 78 74 73 73 70 66 63 63 64 63 60 59 61 60
171 173 173 176 178 175 177 180 178 175 177 179 174 173 175 174 173 173 175 175 176 177 176 175 172 170 170 169 165 160 162 164 167 171 175 180 181 180 173 166 161 149 150 152 143 137 141 142 147 153 147 145 149 148 146 148 143 134 132 127 120 123 119 113 109 103 101 97 91 86 85 85 78 72 72 71 68 66 65 65 65 62 59 59 59
172 174 174 176 179 176 176 181 181 176 176 180 177 176 178 178 177 178 179 179 179 179 175 173 170 169 171 170 168 167 168 169 171 177 182 185 184 179 172 168 164 156 155 163 161 148 147 151 155 155 150 150 149 148 147 142 137 131 127 122 117 118 113 110 110 108 105 102 97 90 89 90 81 73 73 75 73 69 68 67 66 63 60 59 58
172 176 176 176 179 178 178 183 183 178 176 181 181 179 180 180 180 180 180 180 180 178 173 170 168 169 173 175 177 177 177 177 177 183 188 187 184 180 175 173 173 172 168 171 175 161 153 158 159 153 150 151 147 144 143 137 133 130 127 122 117 114 110 108 110 111 110 107 102 94 90 92 85 78 77 77 75 72 69 69 67 64 62 60 59
169 175 175 177 182 180 179 186 187 182 179 182 182 181 181 181 182 181 181 180 178 175 171 170 171 173 177 180 184 185 187 189 188 190 193 190 185 183 180 177 179 183 182 179 175 167 161 162 159 154 152 152 146 143 141 136 132 129 124 120 118 118 115 112 114 116 116 114 110 101 92 89 87 83 81 79 77 76 71 69 69 66 64 61 59
165 173 174 173 180 181 179 186 190 187 184 184 183 182 182 183 182 181 180 179 177 174 172 173 175 179 182 185 186 189 195 201 203 199 195 193 187 184 183 182 183 184 184 178 170 166 163 161 159 156 155 152 145 142 140 136 132 128 124 120 120 124 121 121 123 122 120 117 114 110 101 93 89 85 83 79 77 76 73 72 70 68 66 62 59
163 171 176 170 173 179 183 189 190 189 187 184 184 182 182 183 182 181 180 178 177 175 176 178 180 184 188 189 188 194 200 203 206 204 198 195 190 187 184 183 184 180 177 174 167 165 163 159 158 158 156 152 146 142 140 138 133 128 126 125 127 128 125 126 127 123 121 119 117 114 109 104 98 92 87 81 78 75 72 73 71 69 67 63 60
168 170 175 173 172 174 181 190 191 189 187 185 184 183 183 183 182 181 180 178 177 178 181 182 184 186 188 190 191 196 202 204 203 202 200 198 193 189 184 181 181 177 173 172 168 165 164 159 157 156 153 150 145 141 139 136 132 129 128 128 128 128 128 128 127 124 123 121 120 117 112 110 107 103 97 90 86 80 76 74 71 69 67 62 59
184 176 175 176 179 177 176 185 191 189 187 187 185 184 184 183 182 181 180 179 179 182 186 189 191 189 190 193 194 197 201 202 201 200 199 198 194 188 183 179 175 174 172 173 170 166 165 161 157 153 149 147 142 138 139 132 128 127 124 125 125 126 128 126 125 125 123 121 121 119 113 109 106 106 106 101 95 89 84 79 73 69 66 62 59
244 187 180 179 184 184 175 179 188 189 187 188 187 185 185 183 183 181 180 180 182 186 187 189 191 190 193 196 197 198 200 201 199 199 198 196 194 186 182 178 173 172 172 172 171 167 165 161 159 156 147 143 139 134 135 129 124 123 121 122 122 122 124 123 124 124 122 122 121 118 113 108 104 104 107 106 102 97 92 88 82 75 68 63 59
295 227 188 183 186 187 178 175 183 187 188 189 188 187 184 184 185 183 182 182 184 187 187 189 190 191 196 199 200 200 201 200 197 198 199 195 192 187 183 178 174 172 171 171 170 167 165 159 158 160 151 142 137 132 129 126 122 119 119 120 119 120 120 119 121 121 122 124 120 117 114 109 106 104 102 101 102 100 97 93 90 84 76 68 61
301 268 207 185 183 184 181 175 177 182 186 189 189 187 185 184 187 185 184 185 187 188 191 196 198 198 200 201 202 202 201 200 196 197 199 195 191 189 184 180 175 174 171 170 168 166 166 160 154 157 155 146 139 132 126 124 121 118 117 117 116 117 118 118 119 120 123 123 119 118 115 110 109 107 103 101 100 100 97 93 89 86 82 75 67
284 261 224 199 183 176 177 176 174 177 182 186 188 187 186 185 185 186 186 185 188 191 195 200 201 200 200 200 200 199 199 199 197 196 196 194 191 189 187 181 176 174 173 169 167 165 165 164 155 150 153 149 142 135 128 124 119 116 113 112 114 114 114 116 118 121 123 120 117 115 113 112 110 107 106 104 102 100 96 90 86 82 77 73 69
260 242 215 209 198 172 167 170 170 173 178 182 184 184 184 183 181 183 185 185 188 193 196 198 198 198 199 199 198 196 197 196 196 195 194 193 190 189 188 182 177 175 173 169 166 164 163 164 158 150 147 146 143 138 132 125 118 113 110 108 108 109 110 113 115 116 116 114 114 113 112 111 108 104 102 99 97 94 92 87 80 75 70 66 62
244 231 199 196 206 191 163 157 163 168 170 174 178 179 178 178 178 180 182 184 188 191 193 195 195 197 198 198 197 196 195 193 193 193 192 192 190 189 187 180 177 175 175 171 168 167 165 162 158 154 148 140 140 139 137 132 119 108 106 106 107 107 108 110 109 108 108 108 109 111 110 107 104 100 94 91 87 81 78 74 71 70 66 62 58
230 226 197 182 193 199 187 161 157 163 164 166 169 172 172 173 175 178 180 181 184 186 187 190 192 193 195 196 197 196 195 193 193 193 191 192 189 186 184 178 176 176 176 174 170 168 167 164 157 155 152 145 140 141 143 139 124 110 103 101 101 104 107 109 108 105 105 106 108 110 110 108 103 97 92 87 81 73 67 62 60 61 59 56 54
226 221 202 185 182 189 197 189 170 161 159 161 164 168 171 172 173 177 181 179 181 184 185 186 188 190 191 194 195 195 195 193 193 193 192 192 189 185 182 178 175 175 174 172 171 169 167 167 160 154 153 151 147 146 147 142 131 128 123 108 95 96 100 103 105 106 107 107 109 111 110 111 105 99 97 88 78 70 62 57 52 50 50 47 46
222 215 200 193 187 184 192 194 188 176 167 164 165 167 170 174 177 179 180 178 179 183 184 184 186 188 189 191 193 193 193 192 191 192 192 192 190 186 181 178 175 174 173 169 168 169 167 168 167 161 155 150 148 151 153 153 145 139 130 119 115 109 97 96 99 99 106 110 110 112 112 114 111 108 106 92 80 69 60 53 45 43 41 38 39
215 212 200 194 193 189 189 189 191 191 185 177 173 174 175 178 179 176 176 178 179 181 182 182 183 185 185 187 190 191 192 192 189 189 190 190 188 185 181 177 175 175 175 171 168 169 169 169 170 169 162 154 151 159 167 168 157 146 127 101 128 140 143 135 112 91 98 112 109 112 112 117 119 118 114 97 84 73 60 49 41 37 34 33 34
211 211 204 199 196 193 190 188 191 195 193 190 186 183 180 180 177 172 173 174 173 176 177 176 178 181 181 182 185 189 191 190 188 186 186 185 183 182 180 176 173 172 174 173 171 171 172 172 172 171 170 166 163 168 175 177 169 164 153 130 121 154 193 148 134 97 93 113 109 115 114 117 124 122 114 100 90 77 58 47 39 33 29 29 30
209 211 205 201 199 195 190 187 190 194 195 197 197 195 190 185 178 171 169 169 168 174 176 173 174 177 178 180 181 184 186 185 182 181 180 179 177 177 175 172 169 169 171 172 172 172 173 174 175 173 174 177 176 174 175 179 181 183 183 172 170 217 155 148 142 92 100 113 108 115 112 112 121 121 114 102 89 74 56 44 34 29 27 25 26
208 210 206 202 199 196 191 188 190 192 193 194 197 199 198 195 189 179 172 169 169 174 178 175 174 175 176 178 177 176 178 177 176 176 176 174 172 171 170 169 170 169 170 171 171 173 174 175 177 178 180 183 184 182 179 179 184 193 204 203 216 178 153 154 157 139 131 141 129 119 110 112 119 120 116 105 90 69 50 39 29 26 24 23 23
207 206 206 203 201 197 192 191 191 192 193 194 194 197 197 194 194 191 184 180 180 180 176 173 171 171 172 173 172 171 172 174 173 172 170 169 168 167 168 170 172 169 168 169 169 170 175 177 179 185 189 190 193 194 189 185 187 194 202 206 212 181 166 166 173 163 138 135 161 138 120 119 119 120 117 106 93 68 46 32 25 22 21 21 18
206 204 203 203 202 197 193 191 192 193 194 195 195 195 195 190 186 186 184 183 184 182 177 172 170 169 169 169 170 169 169 170 169 167 165 164 163 160 160 161 162 163 163 162 162 164 172 176 180 188 196 199 201 204 202 197 196 197 196 196 190 172 169 170 172 165 133 127 169 173 150 135 114 111 115 113 100 66 43 30 24 22 21 19 13
206 204 201 201 200 196 193 192 192 194 195 196 196 195 195 191 186 184 182 180 179 176 174 172 170 168 166 166 167 167 166 165 165 165 163 160 158 155 155 156 159 163 163 162 164 167 170 173 180 187 194 202 203 203 204 203 200 198 196 195 184 166 160 160 168 167 135 118 132 159 163 156 129 114 114 119 111 74 46 33 26 25 22 16 10
203 203 201 201 199 196 195 193 193 194 194 194 195 194 194 194 192 190 188 186 183 178 174 173 172 171 168 167 167 166 164 164 162 162 162 161 162 163 163 165 169 173 172 173 178 179 175 177 185 188 191 199 201 198 198 198 197 194 193 192 183 174 173 181 181 177 161 135 126 139 156 153 132 121 124 127 122 106 58 33 26 25 22 15 10